MDT58 CYZT-PABE

Flight info

Callsign MDT58
Flight time N/A
Altitude 20000
Route YZT T719 BKA T269 BET
Aircraft B58T/L-SABDFGRY/C

Departure

Time 2026-04-25 08:37
Airport Port Hardy Airport (CYZT)

Arrival

Time N/A
Airport Bethel Airport (PABE)
Time Latitude Longitude Altitude Speed Heading
2026-04-25 08:25 50.68381 -127.37565 37 ft 0 kts 86°
2026-04-25 08:34 50.68381 -127.37562 37 ft 2 kts 90°
2026-04-25 08:34 50.68376 -127.37551 37 ft 3 kts 135°
2026-04-25 08:34 50.68388 -127.37505 37 ft 8 kts 25°
2026-04-25 08:35 50.68445 -127.37467 37 ft 10 kts 22°
2026-04-25 08:35 50.68510 -127.37420 36 ft 10 kts 39°
2026-04-25 08:35 50.68562 -127.37354 36 ft 9 kts 41°
2026-04-25 08:35 50.68596 -127.37290 38 ft 6 kts 91°
2026-04-25 08:36 50.68577 -127.37236 38 ft 6 kts 129°
2026-04-25 08:36 50.68574 -127.37230 38 ft 0 kts 129°
2026-04-25 08:36 50.68473 -127.37041 42 ft 65 kts 130°
2026-04-25 08:36 50.68043 -127.36234 156 ft 116 kts 130°
2026-04-25 08:37 50.67797 -127.34978 522 ft 132 kts 75°
2026-04-25 08:37 50.68447 -127.33969 939 ft 144 kts 16°
2026-04-25 08:37 50.69424 -127.33920 1530 ft 135 kts 346°
2026-04-25 08:37 50.70112 -127.34896 1988 ft 139 kts 300°
2026-04-25 08:38 50.70543 -127.36172 2562 ft 132 kts 299°
2026-04-25 08:38 50.70930 -127.37580 2799 ft 143 kts 292°
2026-04-25 08:38 50.71252 -127.39031 3251 ft 138 kts 292°
2026-04-25 08:38 50.71573 -127.40489 3563 ft 144 kts 294°
2026-04-25 08:39 50.71966 -127.41961 3866 ft 147 kts 306°
2026-04-25 08:39 50.72630 -127.43188 4178 ft 149 kts 317°
2026-04-25 08:39 50.73364 -127.44375 4491 ft 153 kts 318°
2026-04-25 08:39 50.74118 -127.45582 4805 ft 156 kts 318°
2026-04-25 08:40 50.74891 -127.46811 5111 ft 159 kts 318°
2026-04-25 08:40 50.75674 -127.48057 5415 ft 160 kts 318°
2026-04-25 08:40 50.76455 -127.49305 5717 ft 159 kts 319°
2026-04-25 08:40 50.77235 -127.50536 6015 ft 157 kts 319°
2026-04-25 08:41 50.78002 -127.51755 6319 ft 156 kts 319°
2026-04-25 08:41 50.78768 -127.52972 6614 ft 155 kts 318°
2026-04-25 08:41 50.79521 -127.54183 6899 ft 153 kts 318°
2026-04-25 08:41 50.80264 -127.55373 7176 ft 150 kts 318°
2026-04-25 08:42 50.80985 -127.56524 7458 ft 145 kts 318°
2026-04-25 08:42 50.81684 -127.57637 7692 ft 143 kts 318°
2026-04-25 08:42 50.82382 -127.58749 7933 ft 142 kts 318°
2026-04-25 08:42 50.83070 -127.59849 8178 ft 140 kts 319°
2026-04-25 08:43 50.83756 -127.60944 8390 ft 142 kts 319°
2026-04-25 08:43 50.84462 -127.62071 8575 ft 147 kts 319°
2026-04-25 08:43 50.85191 -127.63237 8735 ft 151 kts 319°
2026-04-25 08:43 50.85683 -127.64024 8845 ft 152 kts 319°
2026-04-25 08:44 50.86432 -127.65224 9013 ft 154 kts 319°
2026-04-25 08:44 50.87446 -127.66848 9233 ft 156 kts 319°
2026-04-25 08:44 50.87951 -127.67659 9342 ft 156 kts 319°
2026-04-25 08:44 50.88719 -127.68889 9505 ft 158 kts 319°
2026-04-25 08:45 50.89489 -127.70125 9669 ft 158 kts 319°
2026-04-25 08:45 50.90259 -127.71361 9829 ft 158 kts 319°
2026-04-25 08:45 50.91029 -127.72598 9987 ft 157 kts 319°
2026-04-25 08:45 50.92124 -127.74360 10193 ft 156 kts 319°
2026-04-25 08:46 50.98071 -127.83943 11341 ft 147 kts 320°
2026-04-25 08:46 51.03497 -127.92715 12514 ft 135 kts 322°
2026-04-25 08:46 51.08697 -128.01149 13744 ft 132 kts 323°
2026-04-25 08:46 51.13913 -128.09632 14537 ft 135 kts 323°
2026-04-25 08:47 51.19219 -128.18301 15314 ft 138 kts 322°
2026-04-25 08:47 51.24816 -128.27473 16153 ft 150 kts 322°
2026-04-25 08:47 51.30789 -128.37304 17004 ft 157 kts 322°
2026-04-25 08:47 51.36994 -128.47557 17848 ft 164 kts 321°
2026-04-25 08:48 51.43419 -128.58216 18689 ft 169 kts 321°
2026-04-25 08:48 51.50005 -128.69194 19460 ft 173 kts 321°
2026-04-25 08:48 51.55133 -128.77774 20008 ft 180 kts 320°
2026-04-25 08:48 51.56011 -128.79244 20015 ft 184 kts 320°
2026-04-25 08:49 51.59260 -128.84696 20021 ft 195 kts 320°
2026-04-25 08:49 51.63177 -128.91293 20026 ft 198 kts 320°
2026-04-25 08:49 51.68781 -129.00754 20113 ft 200 kts 319°
2026-04-25 08:49 51.74323 -129.10150 20120 ft 201 kts 319°
2026-04-25 08:50 51.75287 -129.11789 20120 ft 202 kts 320°
2026-04-25 08:50 51.76248 -129.13424 20120 ft 200 kts 319°
2026-04-25 08:50 51.77202 -129.15044 20118 ft 198 kts 319°
2026-04-25 08:50 51.78148 -129.16653 20114 ft 197 kts 319°
2026-04-25 08:51 51.79091 -129.18260 20116 ft 197 kts 319°
2026-04-25 08:51 51.80032 -129.19863 20116 ft 197 kts 320°
2026-04-25 08:51 51.80971 -129.21464 20117 ft 196 kts 319°
2026-04-25 08:51 51.81914 -129.23069 20116 ft 197 kts 320°
2026-04-25 08:52 51.82857 -129.24675 20119 ft 197 kts 319°
2026-04-25 08:52 51.83801 -129.26290 20119 ft 198 kts 319°
2026-04-25 08:52 51.84749 -129.27909 20122 ft 199 kts 319°
2026-04-25 08:52 51.85699 -129.29533 20128 ft 199 kts 319°
2026-04-25 08:53 51.86654 -129.31170 20130 ft 200 kts 319°
2026-04-25 08:53 51.87611 -129.32809 20132 ft 201 kts 319°
2026-04-25 08:53 51.88568 -129.34450 20134 ft 201 kts 319°
2026-04-25 08:53 51.89163 -129.35471 20134 ft 201 kts 319°
2026-04-25 08:54 51.90068 -129.37024 20136 ft 201 kts 319°
2026-04-25 08:54 51.91029 -129.38675 20137 ft 201 kts 319°
2026-04-25 08:54 51.91989 -129.40326 20138 ft 202 kts 319°
2026-04-25 08:54 51.92950 -129.41978 20139 ft 202 kts 319°
2026-04-25 08:55 51.93914 -129.43637 20136 ft 202 kts 319°
2026-04-25 08:55 51.94875 -129.45293 20136 ft 202 kts 319°
2026-04-25 08:55 51.95838 -129.46952 20138 ft 202 kts 319°
2026-04-25 08:55 51.96799 -129.48607 20137 ft 202 kts 319°
2026-04-25 08:56 51.97760 -129.50266 20139 ft 202 kts 319°
2026-04-25 08:56 51.98722 -129.51927 20139 ft 202 kts 319°
2026-04-25 08:56 51.99683 -129.53588 20140 ft 202 kts 319°
2026-04-25 08:56 52.00632 -129.55227 20139 ft 202 kts 319°
2026-04-25 08:57 52.01592 -129.56887 20139 ft 202 kts 319°
2026-04-25 08:57 52.02554 -129.58555 20141 ft 202 kts 319°
2026-04-25 08:57 52.03515 -129.60220 20141 ft 202 kts 319°
2026-04-25 08:57 52.04476 -129.61883 20140 ft 202 kts 319°
2026-04-25 08:58 52.05437 -129.63550 20139 ft 202 kts 319°
2026-04-25 08:58 52.06398 -129.65219 20140 ft 202 kts 318°
2026-04-25 08:58 52.07357 -129.66884 20139 ft 202 kts 320°